Flag for Romania Weather past 2 weeks in Cluj-Napoca, Romania

Now
57 °F

Scattered clouds.


Feels Like: 54 °F
Forecast: 46 / 72 °F
Wind: 16 mph from Northwest

Location: Cluj Airport-Napoca

Current Time: Aug 28, 2014 at 10:21:21 AM

Latest Report: Aug 28, 2014 at 10:00 AM


Visibility: N/A

Pressure: 30.09 "Hg

Humidity: 77%

Dew point: 50 °F

Location of Cluj-NapocaLocation

Historic Weather in Cluj-Napoca — Graph

°F

Cluj-Napoca temperature yesterday

Maximum temperature yesterday: 68 °F (at 3:00 PM)
Minimum temperature yesterday: 61 °F (at 3:00 AM)
Average temperature yesterday: 64 °F

Past Weeks' High & Low Weather Summary

 TemperatureHumidityPressure
High95 °F (Aug 14, 4:30 PM)100% (Aug 15, 2:00 AM)30.12 "Hg (Aug 15, 2:00 AM)
Low48 °F (Aug 26, 5:30 AM)29% (Aug 22, 5:30 PM)29.74 "Hg (Aug 14, 5:30 PM)
Average67 °F72%29.95 "Hg
* Reported Aug 13 9:00 AM — Aug 28 9:00 AM, Cluj-Napoca, Weather by CustomWeather, © 2014

Note: Actual official high and low records may vary slightly from our data, if they occured in-between our weather recording intervals... More about our weather records

Advertising

Cluj-Napoca weather history for previous 24 hours

 ConditionsComfort  
Time TempWeatherWind HumidityBarometerVisibility
9:00 AM
Aug 28
57 °FPassing clouds.12 mph77%30.07 "HgN/A
8:30 AM55 °FPassing clouds.12 mph77%30.07 "HgN/A
8:00 AM55 °FSunny.14 mph77%30.04 "Hg10 mi
7:30 AM54 °FClear.9 mph82%30.04 "Hg10 mi
7:00 AM52 °FPassing clouds.7 mph88%30.04 "HgN/A
6:30 AM54 °FPassing clouds.7 mph82%30.01 "HgN/A
6:00 AM55 °FPassing clouds.9 mph82%30.01 "HgN/A
5:30 AM55 °FPassing clouds.9 mph82%29.98 "HgN/A
5:00 AM55 °FPassing clouds.12 mph82%29.98 "HgN/A
4:00 AM55 °FPassing clouds.16 mph88%29.95 "HgN/A
3:00 AM59 °FPassing clouds.14 mph88%29.92 "HgN/A
2:00 AM61 °FPassing clouds.2 mph88%29.89 "HgN/A
1:00 AM61 °FPassing clouds.No wind88%29.86 "HgN/A
12:00 AM61 °FPassing clouds.2 mph94%29.86 "HgN/A
11:30 PM
Aug 27
61 °FClear.No wind88%29.86 "Hg10 mi
11:00 PM63 °FPassing clouds.2 mph88%29.86 "HgN/A
10:30 PM61 °FPassing clouds.No wind94%29.86 "HgN/A
10:00 PM63 °FPassing clouds.No wind94%29.86 "HgN/A
9:30 PM64 °FPassing clouds.No wind88%29.86 "HgN/A
9:00 PM64 °FPartly sunny.No wind88%29.83 "HgN/A
8:30 PM66 °FPartly sunny.5 mph88%29.83 "HgN/A
8:00 PM66 °FPassing clouds.2 mph88%29.80 "HgN/A
7:30 PM68 °FPassing clouds.No wind83%29.80 "HgN/A
7:00 PM68 °FScattered clouds.5 mph83%29.83 "HgN/A
6:00 PM66 °FBroken clouds.2 mph88%29.83 "HgN/A
5:30 PM66 °FSprinkles. Broken clouds.No wind88%29.83 "HgN/A
5:00 PM66 °FBroken clouds.5 mph88%29.80 "HgN/A
4:30 PM66 °FLight rain. Partly sunny.7 mph94%29.80 "HgN/A
4:00 PM66 °FLight rain. More clouds than sun.7 mph94%29.83 "HgN/A
3:30 PM68 °FMore clouds than sun.2 mph83%29.80 "HgN/A
3:00 PM68 °FLight rain. Partly sunny.No wind83%29.80 "HgN/A
2:30 PM66 °FLight rain. Cloudy.5 mph88%29.80 "HgN/A
2:00 PM64 °FLight rain. Broken clouds.2 mph94%29.83 "HgN/A
1:30 PM64 °FLight rain. Cloudy.2 mph94%29.83 "Hg4 mi
1:00 PM63 °FLight rain. More clouds than sun.No wind94%29.83 "Hg4 mi
12:30 PM63 °FSprinkles. Cloudy.No wind94%29.83 "Hg4 mi
12:00 PM63 °FLight rain. More clouds than sun.2 mph94%29.83 "Hg4 mi
11:30 AM63 °FLight rain. More clouds than sun.5 mph94%29.83 "Hg4 mi
11:00 AM63 °FSprinkles. Mostly cloudy.7 mph94%29.83 "Hg4 mi
10:30 AM63 °FSprinkles. More clouds than sun.7 mph94%29.80 "HgN/A
10:00 AM64 °FLight rain. Broken clouds.7 mph83%29.80 "HgN/A
Weather by CustomWeather, © 2014

See weather overviewHow to use our weather pages